Location: Newark
(25.0000°N, 73.5000°E)
Time: 16:25:11
(UTC+00:00)

Transit 2A - Visible Passes

Search period start: 27 February 2021 00:00
Search period end: 09 March 2021 00:00
Orbit: 600 x 958 km, 66.7° (Epoch: 26 February)

Date Brightness Start Highest point End Pass type
(mag) Time Alt. Az. Time Alt. Az. Time Alt. Az.
27 Feb 5.5 00:37:47 10° NNW 00:42:05 67° WSW 00:46:33 10° SSE visible
27 Feb 6.4 13:25:19 10° S 13:30:58 51° ESE 13:36:06 10° NE visible
27 Feb 8.8 15:10:56 10° W 15:14:11 16° WNW 15:17:17 10° NNW visible
28 Feb 5.8 00:03:48 11° NNW 00:07:57 69° ENE 00:12:26 10° SSE visible
28 Feb 8.3 14:35:23 10° WSW 14:39:54 24° WNW 14:44:06 10° N visible
28 Feb 6.8 23:31:58 26° NNE 23:33:47 38° ENE 23:37:59 10° SE visible
01 Mar 7.6 14:00:26 10° SW 14:05:42 37° WNW 14:10:31 10° N visible
01 Mar 7.8 23:00:12 22° ENE 23:00:12 22° ENE 23:03:08 10° ESE visible
02 Mar 6.9 00:40:48 16° W 00:42:28 19° WSW 00:45:43 10° SSW visible
02 Mar 6.8 13:25:51 10° SW 13:31:32 59° WNW 13:36:40 10° NNE visible
03 Mar 6.4 00:09:05 31° SW 00:09:05 31° SW 00:12:29 10° S visible
03 Mar 7.5 23:37:22 19° S 23:37:22 19° S 23:38:46 10° S visible
04 Mar 8.8 14:03:42 10° W 14:06:29 14° WNW 14:09:09 10° NNW visible
05 Mar 8.6 13:27:58 10° WSW 13:32:11 22° WNW 13:36:09 10° NNW visible
